Weather History for Craig, CO

Change the Weather History Date:

Tuesday, October 22, 2013

  Actual Average Record
Temperature  
Mean Temperature 41 °F 41 °F  
Max Temperature 62 °F 57 °F 80 °F (2003)
Min Temperature 20 °F 24 °F 10 °F (1996)
Degree Days  
Heating Degree Days 24 24  
Month to date heating degree days 497 444  
Since 1 July heating degree days 681 809  
Cooling Degree Days 0 0  
Month to date cooling degree days 0 0  
Year to date cooling degree days 377 142  
Moisture  
Dew Point 25 °F    
Average Humidity 59    
Maximum Humidity 92    
Minimum Humidity 25    
Precipitation  
Precipitation 0.00 in 0.05 in 0.25 in (2004)
Month to date precipitation 1.71 1.22  
Year to date precipitation 11.02 13.18  
Sea Level Pressure  
Sea Level Pressure 30.30 in    
Wind  
Wind Speed 2 mph (West)    
Max Wind Speed 12 mph    
Max Gust Speed 15 mph    
Visibility 10 miles    
Events      
T = Trace of Precipitation, MM = Missing Value Source: NWS Daily Summary

Daily Weather History Graph

Daily Weather History Graph

Search for Another Location

Airport:

Trip Planner

Search our weather history database for the weather conditions in past years. The results will help you decide how hot, cold, wet, or windy it might be!

Date:

Astronomy

Oct. 22, 2013 Rise Set
Actual Time 7:29 AM MDT 6:19 PM MDT
Civil Twilight 7:01 AM MDT 6:47 PM MDT
Nautical Twilight 6:29 AM MDT 7:18 PM MDT
Astronomical Twilight 5:57 AM MDT 7:50 PM MDT
Moon 9:01 PM MDT (10/22) 11:00 AM MDT (10/22)
Length of Visible Light 11h 45m
Length of Day
10h 50m
Waning Gibbous, 86% of the Moon is Illuminated
Oct 22
Waning Gibbous
Oct 26
Last Quarter
Nov 3
New
Nov 9
First Quarter
Nov 17
Full

Hourly Weather History & Observations

Time (MDT) Temp. Windchill Dew Point Humidity Pressure Visibility Wind Dir Wind Speed Gust Speed Precip Events Conditions
12:53 AM 27.0 °F - 21.9 °F 81% 30.32 in 10.0 mi Calm Calm - N/A   Clear
1:53 AM 26.1 °F - 21.9 °F 84% 30.32 in 10.0 mi Calm Calm - N/A   Clear
2:53 AM 24.1 °F - 21.0 °F 88% 30.32 in 10.0 mi Calm Calm - N/A   Clear
3:53 AM 24.1 °F - 19.9 °F 84% 30.32 in 10.0 mi Calm Calm - N/A   Clear
4:53 AM 24.1 °F - 19.9 °F 84% 30.33 in 10.0 mi Calm Calm - N/A   Clear
5:53 AM 23.0 °F 18.4 °F 19.0 °F 85% 30.36 in 10.0 mi SW 3.5 mph - N/A   Clear
6:53 AM 21.9 °F - 19.0 °F 89% 30.41 in 10.0 mi Calm Calm - N/A   Clear
7:53 AM 23.0 °F - 19.9 °F 88% 30.43 in 10.0 mi Calm Calm - N/A   Clear
8:53 AM 30.0 °F - 26.1 °F 85% 30.41 in 10.0 mi Calm Calm - N/A   Clear
9:53 AM 37.0 °F - 28.0 °F 70% 30.40 in 10.0 mi Calm Calm - N/A   Clear
10:53 AM 50.0 °F - 28.0 °F 43% 30.33 in 10.0 mi ENE 5.8 mph - N/A   Clear
11:53 AM 55.0 °F - 28.0 °F 35% 30.30 in 10.0 mi Calm Calm - N/A   Clear
12:53 PM 57.0 °F - 25.0 °F 29% 30.27 in 10.0 mi Variable 4.6 mph - N/A   Clear
1:53 PM 60.1 °F - 27.0 °F 28% 30.23 in 10.0 mi WNW 6.9 mph - N/A   Clear
2:53 PM 61.0 °F - 25.0 °F 25% 30.22 in 10.0 mi WNW 5.8 mph - N/A   Clear
3:53 PM 61.0 °F - 25.0 °F 25% 30.21 in 10.0 mi WNW 5.8 mph - N/A   Clear
4:53 PM 61.0 °F - 26.1 °F 26% 30.20 in 10.0 mi West 6.9 mph - N/A   Clear
5:53 PM 55.9 °F - 27.0 °F 33% 30.22 in 10.0 mi West 3.5 mph - N/A   Clear
6:53 PM 43.0 °F 39.5 °F 28.9 °F 58% 30.30 in 10.0 mi SSW 5.8 mph - N/A   Clear
7:53 PM 39.0 °F - 30.0 °F 70% 30.32 in 10.0 mi Calm Calm - N/A   Clear
8:53 PM 37.9 °F 35.5 °F 27.0 °F 65% 30.30 in 10.0 mi ENE 3.5 mph - N/A   Clear
9:53 PM 34.0 °F 28.8 °F 27.0 °F 75% 30.29 in 10.0 mi ESE 5.8 mph - N/A   Clear
10:53 PM 30.9 °F - 26.1 °F 82% 30.25 in 10.0 mi Calm Calm - N/A   Clear
11:53 PM 28.0 °F - 24.1 °F 85% 30.24 in 10.0 mi Calm Calm - N/A   Clear